�������l�o���
Date,Time,MP-1(��Sv/h),MP-2(��Sv/h),MP-3(��Sv/h),MP-4(��Sv/h),MP-5(��Sv/h),MP-6(��Sv/h),MP-7(��Sv/h),����,����(m/s),���J
2014/11/23,00:00,0.627,0.398,0.662,0.597,0.590,0.276,0.246,�쐼,2.9,��
2014/11/23,00:10,0.629,0.398,0.662,0.598,0.588,0.276,0.245,��쐼,2.2,��
2014/11/23,00:20,0.628,0.398,0.663,0.599,0.588,0.277,0.245,��쐼,2.0,��
2014/11/23,00:30,0.629,0.399,0.662,0.598,0.591,0.275,0.244,��쐼,3.6,��
2014/11/23,00:40,0.628,0.398,0.664,0.597,0.589,0.276,0.245,�쐼,2.3,��
2014/11/23,00:50,0.626,0.397,0.663,0.598,0.589,0.276,0.246,�쐼,1.9,��
2014/11/23,01:00,0.628,0.399,0.663,0.598,0.589,0.276,0.245,�쐼,1.8,��
2014/11/23,01:10,0.626,0.397,0.663,0.598,0.588,0.276,0.246,���쐼,1.9,��
2014/11/23,01:20,0.630,0.397,0.662,0.597,0.591,0.276,0.245,��,1.9,��
2014/11/23,01:30,0.627,0.398,0.664,0.597,0.588,0.275,0.245,���k��,2.2,��
2014/11/23,01:40,0.626,0.396,0.663,0.598,0.589,0.276,0.246,��,1.4,��
2014/11/23,01:50,0.627,0.398,0.664,0.598,0.587,0.277,0.244,���쐼,1.8,��
2014/11/23,02:00,0.626,0.398,0.663,0.598,0.589,0.276,0.245,���쐼,3.0,��
2014/11/23,02:10,0.627,0.397,0.663,0.598,0.589,0.277,0.245,���쐼,3.9,��
2014/11/23,02:20,0.625,0.398,0.663,0.599,0.589,0.274,0.245,�쐼,2.5,��
2014/11/23,02:30,0.627,0.398,0.663,0.599,0.591,0.277,0.245,��쐼,1.7,��
2014/11/23,02:40,0.628,0.397,0.662,0.598,0.588,0.277,0.244,�쐼,3.3,��
2014/11/23,02:50,0.628,0.396,0.665,0.598,0.590,0.276,0.246,��,1.6,��
2014/11/23,03:00,0.628,0.398,0.663,0.599,0.588,0.276,0.245,���k��,0.8,��
2014/11/23,03:10,0.629,0.398,0.661,0.598,0.589,0.276,0.245,��,2.9,��
2014/11/23,03:20,0.628,0.396,0.664,0.597,0.590,0.276,0.246,��,3.1,��
2014/11/23,03:30,0.628,0.398,0.663,0.598,0.589,0.275,0.244,��,4.8,��
2014/11/23,03:40,0.628,0.398,0.662,0.599,0.588,0.276,0.245,��,4.3,��
2014/11/23,03:50,0.626,0.397,0.662,0.598,0.587,0.277,0.246,��,5.0,��
2014/11/23,04:00,0.626,0.397,0.664,0.598,0.588,0.276,0.244,��,4.2,��
2014/11/23,04:10,0.627,0.397,0.663,0.598,0.587,0.277,0.245,���k��,3.6,��
2014/11/23,04:20,0.626,0.399,0.663,0.600,0.589,0.276,0.245,���k��,4.6,��
2014/11/23,04:30,0.627,0.397,0.664,0.600,0.589,0.277,0.246,���k��,2.3,��
2014/11/23,04:40,0.626,0.398,0.664,0.597,0.590,0.277,0.244,�k,1.1,��
2014/11/23,04:50,0.628,0.397,0.663,0.598,0.589,0.276,0.244,���k��,1.1,��
2014/11/23,05:00,0.627,0.398,0.664,0.599,0.587,0.276,0.245,��,2.1,��
2014/11/23,05:10,0.628,0.398,0.664,0.598,0.589,0.276,0.244,��,2.5,��
2014/11/23,05:20,0.627,0.398,0.664,0.600,0.588,0.274,0.244,�k��,2.1,��
2014/11/23,05:30,0.628,0.398,0.663,0.597,0.589,0.274,0.244,�k��,1.7,��
2014/11/23,05:40,0.629,0.398,0.664,0.601,0.589,0.276,0.245,���k��,4.0,��
2014/11/23,05:50,0.627,0.398,0.662,0.600,0.587,0.275,0.246,���k��,6.4,��
2014/11/23,06:00,0.626,0.397,0.663,0.599,0.589,0.275,0.245,���k��,7.7,��
2014/11/23,06:10,0.627,0.399,0.666,0.599,0.587,0.276,0.244,��,6.8,��
2014/11/23,06:20,0.627,0.399,0.662,0.598,0.589,0.275,0.244,�k,2.8,��
2014/11/23,06:30,0.629,0.399,0.664,0.597,0.588,0.276,0.245,�k�k��,3.3,��
2014/11/23,06:40,0.629,0.399,0.663,0.600,0.588,0.276,0.244,�k,3.2,��
2014/11/23,06:50,0.628,0.398,0.665,0.600,0.589,0.276,0.244,�k,7.3,��
2014/11/23,07:00,0.629,0.399,0.665,0.601,0.588,0.274,0.244,�k,10.3,��
2014/11/23,07:10,0.628,0.400,0.665,0.599,0.588,0.276,0.244,�k,11.5,��
2014/11/23,07:20,0.629,0.400,0.664,0.600,0.589,0.276,0.243,�k,9.2,��
2014/11/23,07:30,0.628,0.400,0.666,0.600,0.589,0.276,0.244,�k,8.6,��
2014/11/23,07:40,0.628,0.400,0.665,0.600,0.589,0.276,0.244,�k,6.5,��
2014/11/23,07:50,0.629,0.399,0.665,0.600,0.589,0.276,0.244,�k,5.2,��
2014/11/23,08:00,0.629,0.401,0.664,0.600,0.590,0.276,0.244,�k,5.4,��
2014/11/23,08:10,0.628,0.399,0.665,0.599,0.589,0.276,0.245,�k,6.0,��
2014/11/23,08:20,0.628,0.399,0.665,0.601,0.591,0.278,0.243,�k�k��,7.2,��
2014/11/23,08:30,0.628,0.400,0.663,0.601,0.591,0.275,0.244,�k,7.0,��
2014/11/23,08:40,0.629,0.399,0.664,0.601,0.589,0.277,0.244,�k,8.0,��
2014/11/23,08:50,0.629,0.400,0.667,0.601,0.590,0.275,0.245,�k,7.9,��
2014/11/23,09:00,0.630,0.399,0.666,0.600,0.588,0.277,0.245,�k,9.2,��
2014/11/23,09:10,0.630,0.400,0.667,0.602,0.590,0.276,0.245,�k,7.3,��
2014/11/23,09:20,0.630,0.400,0.667,0.601,0.589,0.278,0.244,�k,8.2,��
2014/11/23,09:30,0.629,0.401,0.666,0.604,0.591,0.277,0.245,�k,7.2,��
2014/11/23,09:40,0.630,0.399,0.664,0.601,0.591,0.276,0.245,�k,7.5,��
2014/11/23,09:50,0.629,0.399,0.666,0.603,0.591,0.276,0.245,�k,7.8,��
2014/11/23,10:00,0.628,0.400,0.666,0.603,0.590,0.277,0.245,�k,6.5,��
2014/11/23,10:10,0.629,0.401,0.665,0.601,0.590,0.277,0.244,�k,6.9,��
2014/11/23,10:20,0.629,0.400,0.666,0.601,0.590,0.277,0.244,�k,8.1,��
2014/11/23,10:30,0.629,0.400,0.665,0.602,0.588,0.276,0.245,�k,5.5,��
2014/11/23,10:40,0.629,0.399,0.668,0.604,0.587,0.276,0.244,�k,5.0,��
2014/11/23,10:50,0.628,0.399,0.666,0.601,0.589,0.276,0.247,�k,3.7,��
2014/11/23,11:00,0.629,0.400,0.665,0.601,0.590,0.276,0.245,�k,5.7,��
2014/11/23,11:10,0.630,0.399,0.666,0.602,0.591,0.277,0.246,�k,4.9,��
2014/11/23,11:20,0.628,0.400,0.664,0.601,0.590,0.276,0.244,�k,4.5,��
2014/11/23,11:30,0.630,0.399,0.664,0.602,0.589,0.277,0.246,�k,5.5,��
2014/11/23,11:40,0.630,0.401,0.665,0.602,0.589,0.275,0.244,�k,5.3,��
2014/11/23,11:50,0.628,0.400,0.666,0.601,0.590,0.274,0.245,�k,4.9,��
2014/11/23,12:00,0.628,0.399,0.667,0.603,0.590,0.275,0.244,�k,2.9,��
2014/11/23,12:10,0.629,0.400,0.667,0.601,0.589,0.277,0.245,�k�k��,3.1,��
2014/11/23,12:20,0.628,0.401,0.664,0.601,0.589,0.276,0.245,�k,3.5,��
2014/11/23,12:30,0.629,0.400,0.667,0.604,0.591,0.278,0.245,�k,2.6,��
2014/11/23,12:40,0.628,0.401,0.664,0.604,0.589,0.276,0.245,�k,1.5,��
2014/11/23,12:50,0.628,0.397,0.664,0.602,0.589,0.277,0.244,�k�k��,3.3,��
2014/11/23,13:00,0.629,0.400,0.666,0.604,0.587,0.275,0.246,�k�k��,4.5,��
2014/11/23,13:10,0.629,0.399,0.664,0.605,0.590,0.277,0.245,�k�k��,4.1,��
2014/11/23,13:20,0.631,0.401,0.665,0.602,0.589,0.275,0.245,�k�k��,4.4,��
2014/11/23,13:30,0.630,0.397,0.667,0.603,0.590,0.277,0.244,�k�k��,4.7,��
2014/11/23,13:40,0.629,0.400,0.665,0.603,0.588,0.276,0.245,�k�k��,4.9,��
2014/11/23,13:50,0.630,0.401,0.665,0.601,0.591,0.277,0.245,�k�k��,4.9,��
2014/11/23,14:00,0.630,0.398,0.663,0.601,0.591,0.275,0.245,�k�k��,6.3,��
2014/11/23,14:10,0.630,0.400,0.665,0.602,0.588,0.275,0.246,�k�k��,5.8,��
2014/11/23,14:20,0.629,0.399,0.664,0.605,0.588,0.274,0.246,�k�k��,6.2,��
2014/11/23,14:30,0.630,0.400,0.664,0.607,0.589,0.275,0.245,�k�k��,6.6,��
2014/11/23,14:40,0.628,0.399,0.666,0.605,0.589,0.278,0.246,�k�k��,4.4,��
2014/11/23,14:50,0.630,0.400,0.666,0.605,0.589,0.276,0.245,�k,4.3,��
2014/11/23,15:00,0.629,0.399,0.666,0.602,0.589,0.278,0.245,�k,3.1,��
2014/11/23,15:10,0.628,0.399,0.665,0.600,0.589,0.277,0.244,�k,3.9,��
2014/11/23,15:20,0.629,0.401,0.664,0.600,0.589,0.277,0.245,�k,2.6,��
2014/11/23,15:30,0.627,0.399,0.665,0.600,0.591,0.276,0.245,�k,2.6,��
2014/11/23,15:40,0.628,0.399,0.664,0.600,0.589,0.277,0.245,�k,2.8,��
2014/11/23,15:50,0.629,0.399,0.665,0.601,0.592,0.276,0.246,�k,2.3,��
2014/11/23,16:00,0.630,0.400,0.664,0.602,0.589,0.277,0.245,�k,2.2,��
2014/11/23,16:10,0.630,0.400,0.664,0.600,0.589,0.278,0.245,�k,2.5,��
2014/11/23,16:20,0.630,0.399,0.664,0.598,0.589,0.275,0.246,�k,2.8,��
2014/11/23,16:30,0.628,0.400,0.666,0.598,0.590,0.276,0.245,�k�k��,1.7,��
2014/11/23,16:40,0.631,0.399,0.665,0.598,0.589,0.276,0.245,�k,1.7,��
2014/11/23,16:50,0.628,0.398,0.663,0.600,0.589,0.276,0.245,�k�k��,1.4,��
2014/11/23,17:00,0.628,0.399,0.664,0.599,0.588,0.277,0.245,�k��,0.8,��
2014/11/23,17:10,0.628,0.399,0.665,0.600,0.590,0.275,0.244,-,CALM,��
2014/11/23,17:20,0.631,0.398,0.664,0.599,0.590,0.277,0.244,�k�k��,0.5,��
2014/11/23,17:30,0.627,0.399,0.665,0.600,0.589,0.276,0.247,���k��,1.6,��
2014/11/23,17:40,0.628,0.399,0.663,0.601,0.588,0.276,0.245,�k�k��,1.5,��
2014/11/23,17:50,0.627,0.398,0.665,0.600,0.589,0.276,0.245,���k��,2.5,��
2014/11/23,18:00,0.628,0.399,0.664,0.598,0.589,0.277,0.247,�k��,3.3,��
2014/11/23,18:10,0.630,0.398,0.664,0.598,0.588,0.277,0.247,�k��,3.8,��
2014/11/23,18:20,0.628,0.399,0.665,0.600,0.589,0.277,0.248,�k�k��,3.1,��
2014/11/23,18:30,0.628,0.398,0.663,0.601,0.587,0.278,0.247,�k��,3.8,��
2014/11/23,18:40,0.628,0.399,0.664,0.600,0.588,0.276,0.246,�k��,3.5,��
2014/11/23,18:50,0.626,0.398,0.664,0.599,0.587,0.276,0.245,�k��,3.3,��
2014/11/23,19:00,0.628,0.397,0.663,0.600,0.589,0.278,0.246,�k�k��,2.8,��
2014/11/23,19:10,0.628,0.399,0.665,0.598,0.589,0.277,0.244,�k�k��,2.6,��
2014/11/23,19:20,0.628,0.398,0.663,0.598,0.591,0.277,0.245,�k,3.9,��
2014/11/23,19:30,0.628,0.399,0.663,0.598,0.588,0.276,0.246,�k,4.3,��
2014/11/23,19:40,0.629,0.399,0.665,0.600,0.587,0.275,0.245,�k�k��,3.4,��
2014/11/23,19:50,0.628,0.397,0.664,0.601,0.590,0.277,0.247,�k�k��,3.6,��
2014/11/23,20:00,0.627,0.397,0.664,0.599,0.589,0.276,0.246,�k�k��,4.2,��
2014/11/23,20:10,0.629,0.398,0.665,0.599,0.590,0.276,0.246,�k�k��,3.8,��
2014/11/23,20:20,0.628,0.398,0.664,0.600,0.590,0.276,0.247,�k,4.0,��
2014/11/23,20:30,0.628,0.398,0.664,0.600,0.589,0.277,0.246,�k�k��,3.8,��
2014/11/23,20:40,0.628,0.397,0.663,0.599,0.589,0.276,0.246,�k�k��,4.2,��
2014/11/23,20:50,0.628,0.397,0.665,0.599,0.588,0.276,0.245,�k�k��,4.2,��
2014/11/23,21:00,0.627,0.399,0.662,0.600,0.588,0.277,0.246,�k�k��,2.2,��
2014/11/23,21:10,0.627,0.399,0.662,0.599,0.589,0.276,0.247,�k�k��,3.1,��
2014/11/23,21:20,0.628,0.399,0.664,0.598,0.588,0.276,0.246,�k�k��,4.7,��
2014/11/23,21:30,0.627,0.398,0.663,0.598,0.588,0.276,0.247,�k�k��,5.1,��
2014/11/23,21:40,0.627,0.397,0.663,0.601,0.589,0.277,0.246,�k�k��,5.6,��
2014/11/23,21:50,0.628,0.398,0.664,0.601,0.589,0.277,0.246,�k�k��,4.6,��
2014/11/23,22:00,0.627,0.398,0.665,0.598,0.590,0.278,0.246,�k�k��,3.2,��
2014/11/23,22:10,0.627,0.398,0.663,0.598,0.589,0.276,0.245,�k,4.6,��
2014/11/23,22:20,0.628,0.398,0.663,0.599,0.588,0.277,0.246,�k,4.7,��
2014/11/23,22:30,0.628,0.399,0.664,0.598,0.589,0.276,0.245,�k,6.1,��
2014/11/23,22:40,0.628,0.397,0.664,0.599,0.588,0.276,0.247,�k,4.8,��
2014/11/23,22:50,0.630,0.398,0.665,0.600,0.591,0.276,0.246,�k,5.1,��
2014/11/23,23:00,0.627,0.398,0.664,0.600,0.590,0.276,0.246,�k,5.5,��
2014/11/23,23:10,0.627,0.398,0.664,0.601,0.590,0.276,0.246,�k,5.6,��
2014/11/23,23:20,0.628,0.398,0.664,0.600,0.588,0.277,0.246,�k�k��,5.6,��
2014/11/23,23:30,0.627,0.400,0.663,0.599,0.590,0.276,0.245,�k�k��,5.3,��
2014/11/23,23:40,0.629,0.399,0.664,0.599,0.589,0.277,0.245,�k,5.5,��
2014/11/23,23:50,0.627,0.398,0.661,0.601,0.589,0.277,0.246,�k,6.1,��
